Simultaneous Nadir Overpasses (SNOs) Predictions

Prediction of SNOs between NOAA-20 and PACE Satellite Orbit:

Table of predicted SNOs for the next 14.0 days since TLE Epoch: 5/4/2024
Index Date (NOAA-20) Time (NOAA-20) Lat,Lon (NOAA-20) SZA (NOAA-20 ) Date (PACE) Time (PACE) Lat,Lon (PACE) SZA (PACE ) Distance(km) Time Diff (sec)
1 05/04/2024 09:54:13 -80.08, 172.16 113.86 05/04/2024 09:54:42 -80.08, 172.23 113.89 1.58 29
2 05/04/2024 10:44:50 79.85, -18.20 65.70 05/04/2024 10:43:46 79.86, -18.31 65.74 2.33 64
3 05/06/2024 14:20:34 -80.04, 106.04 114.57 05/06/2024 14:21:01 -80.04, 105.99 114.57 0.96 27
4 05/06/2024 15:11:14 79.89, -85.21 65.16 05/06/2024 15:10:07 79.89, -85.15 65.18 1.27 67
5 05/08/2024 18:46:57 -80.05, 39.29 115.13 05/08/2024 18:47:21 -80.05, 39.33 115.15 0.75 24
6 05/08/2024 19:37:37 79.91,-151.97 64.60 05/08/2024 19:36:27 79.90,-151.84 64.61 2.53 70
7 05/10/2024 23:13:19 -80.04, -27.18 115.72 05/10/2024 23:13:40 -80.04, -27.18 115.73 0.13 21
8 05/11/2024 00:03:58 79.87, 141.83 63.95 05/11/2024 00:02:45 79.86, 141.90 63.98 1.47 73
9 05/13/2024 03:39:40 -80.00, -93.40 116.34 05/13/2024 03:39:58 -80.01, -93.54 116.32 2.96 18
10 05/13/2024 04:28:27 75.28, 98.74 57.13 05/13/2024 04:27:15 74.92, 96.39 56.98 77.94 72
11 05/15/2024 08:06:02 -80.00,-159.94 116.86 05/15/2024 08:06:16 -80.00,-160.03 116.86 1.84 14



Historial Predications of SNOs between NOAA-20 and PACE
